sat.trackr.live / text

‹ back to catalog

ONEWEB-0425

NORAD 51628 · 2022-012G

PAYLOAD ACTIVE UNKNOWN

§ Identity

Operator
Country
UK
Launch date
2022-02-10
Launch site
FRGUI
Launch vehicle
Mass (kg)
RCS (m²)

Purposes: comms

External: N2YO · Heavens-Above · Gunter

§ Orbital elements

Epoch: 2026-09-20T02:19:47.858016Z

Period
109.89 min
Inclination
87.8913°
Eccentricity
0.0002024
Mean motion
13.10371269 rev/d
Perigee alt
1,220.2 km
Apogee alt
1,223.3 km
Semi-major
7,599.9 km
B*
1.0955e-3
RAAN
17.3726°
Arg perigee
116.2321°
Mean anomaly
243.9015°
Rev number
22,175

§ Raw data

ONEWEB-04251 51628U 22012G   26263.09708169  .00000395  00000+0  10955-2 0  99962 51628  87.8913  17.3726 0002024 116.2321 243.9015 13.10371269221754

JSON: /api/v1/satellites/51628 · /tle

For live sub-satellite position, see the globe view (requires WebGL).

§ Visibility from observer

Set your observer location to see the next 7 days of passes ≥ 10°. The values pass through the URL so the page stays shareable.

No JS? Fill the form by hand. The geolocation button needs JavaScript.